When you browse on this site, cookies collect data to enhance your experience and personalize the content and advertising you see.
Visit our Privacy Policy to learn more. By continuing to use the site, you agree to this use of cookies and data.
  • In Slovakia
  • List of Countries
  • For 7 days
  • Water Temperature
  • Satellite Maps
  • Weather Map
  • Weather Widgets
  • user-avatar
    Login

    Hourly Weather Baraki Barak

    Today, 20 July, Saturday

    Time Temperature Precipitation Wind Pressure Humidity
    00:00 +24°C° 0 mm 1 mps 598 mmHg 54%
    01:00 +23°C° 0 mm 1 mps 598 mmHg 57%
    02:00 +23°C° 0 mm 1 mps 598 mmHg 61%
    03:00 +22°C° 0 mm 1 mps 598 mmHg 65%
    04:00 +21°C° 0 mm 1 mps 597 mmHg 68%
    05:00 +19°C° 0 mm 0 mps 597 mmHg 73%
    06:00 +20°C° 0 mm 0 mps 598 mmHg 65%
    07:00 +24°C° 0 mm 1 mps 599 mmHg 56%
    08:00 +25°C° 0 mm 1 mps 600 mmHg 48%
    09:00 +27°C° 0 mm 1 mps 601 mmHg 39%
    10:00 +29°C° 0 mm 2 mps 601 mmHg 30%
    11:00 +30°C° 0 mm 2 mps 601 mmHg 23%
    12:00 +33°C° 0 mm 3 mps 601 mmHg 20%
    13:00 +34°C° 0 mm 3 mps 602 mmHg 16%
    14:00 +35°C° 0 mm 4 mps 602 mmHg 13%
    15:00 +35°C° 0 mm 4 mps 601 mmHg 13%
    16:00 +36°C° 0 mm 4 mps 601 mmHg 12%
    17:00 +36°C° 0 mm 4 mps 601 mmHg 12%
    18:00 +34°C° 0 mm 4 mps 601 mmHg 17%
    19:00 +32°C° 0 mm 4 mps 600 mmHg 22%
    20:00 +30°C° 0 mm 3 mps 600 mmHg 27%
    21:00 +28°C° 0 mm 3 mps 600 mmHg 34%
    22:00 +27°C° 0 mm 2 mps 600 mmHg 42%
    23:00 +25°C° 0 mm 1 mps 599 mmHg 49%

    Tomorrow, 21 July, Sunday

    Time Temperature Precipitation Wind Pressure Humidity
    00:00 +25°C° 0 mm 1 mps 599 mmHg 51%
    01:00 +24°C° 0 mm 1 mps 599 mmHg 54%
    02:00 +21°C° 0 mm 0 mps 598 mmHg 56%
    03:00 +20°C° 0 mm 0 mps 598 mmHg 57%
    04:00 +20°C° 0 mm 0 mps 598 mmHg 58%
    05:00 +19°C° 0 mm 0 mps 597 mmHg 59%
    06:00 +21°C° 0 mm 0 mps 598 mmHg 51%
    07:00 +24°C° 0 mm 1 mps 599 mmHg 44%
    08:00 +26°C° 0 mm 1 mps 600 mmHg 37%
    09:00 +28°C° 0 mm 1 mps 600 mmHg 30%
    10:00 +29°C° 0 mm 1 mps 601 mmHg 23%
    11:00 +31°C° 0 mm 2 mps 601 mmHg 17%
    12:00 +32°C° 0 mm 2 mps 601 mmHg 14%
    13:00 +34°C° 0 mm 2 mps 601 mmHg 12%
    14:00 +35°C° 0 mm 3 mps 602 mmHg 10%
    15:00 +36°C° 0 mm 3 mps 601 mmHg 9%
    16:00 +36°C° 0 mm 3 mps 601 mmHg 9%
    17:00 +36°C° 0 mm 3 mps 601 mmHg 8%
    18:00 +34°C° 0 mm 4 mps 600 mmHg 11%
    19:00 +33°C° 0 mm 4 mps 600 mmHg 13%
    20:00 +30°C° 0 mm 5 mps 600 mmHg 15%
    21:00 +28°C° 0 mm 3 mps 599 mmHg 22%
    22:00 +27°C° 0 mm 2 mps 599 mmHg 29%
    23:00 +26°C° 0 mm 1 mps 599 mmHg 36%

    Day after tomorrow, 22 July, Monday

    Time Temperature Precipitation Wind Pressure Humidity
    00:00 +25°C° 0 mm 1 mps 599 mmHg 37%
    01:00 +24°C° 0 mm 1 mps 598 mmHg 38%
    02:00 +23°C° 0 mm 1 mps 598 mmHg 39%
    03:00 +23°C° 0 mm 1 mps 597 mmHg 38%
    04:00 +22°C° 0 mm 1 mps 597 mmHg 36%
    05:00 +21°C° 0 mm 1 mps 597 mmHg 35%
    06:00 +23°C° 0 mm 1 mps 598 mmHg 30%
    07:00 +25°C° 0 mm 1 mps 599 mmHg 26%
    08:00 +27°C° 0 mm 1 mps 600 mmHg 21%
    09:00 +29°C° 0 mm 1 mps 600 mmHg 18%
    10:00 +30°C° 0 mm 2 mps 600 mmHg 15%
    11:00 +32°C° 0 mm 2 mps 601 mmHg 11%
    12:00 +34°C° 0 mm 2 mps 601 mmHg 10%
    13:00 +35°C° 0 mm 3 mps 601 mmHg 9%
    14:00 +36°C° 0 mm 3 mps 601 mmHg 8%
    15:00 +36°C° 0 mm 4 mps 600 mmHg 8%
    16:00 +36°C° 0 mm 5 mps 600 mmHg 8%
    17:00 +36°C° 0 mm 5 mps 600 mmHg 8%
    18:00 +34°C° 0 mm 5 mps 599 mmHg 11%
    19:00 +32°C° 0 mm 5 mps 599 mmHg 14%
    20:00 +30°C° 0 mm 5 mps 598 mmHg 17%
    21:00 +28°C° 0 mm 3 mps 598 mmHg 20%
    22:00 +27°C° 0 mm 2 mps 598 mmHg 23%
    23:00 +25°C° 0 mm 1 mps 598 mmHg 26%

    23 July, Tuesday

    Time Temperature Precipitation Wind Pressure Humidity
    00:00 +25°C° 0 mm 1 mps 597 mmHg 27%
    01:00 +24°C° 0 mm 1 mps 597 mmHg 28%
    02:00 +23°C° 0 mm 1 mps 596 mmHg 29%
    03:00 +22°C° 0 mm 1 mps 596 mmHg 30%
    04:00 +20°C° 0 mm 0 mps 596 mmHg 31%
    05:00 +19°C° 0 mm 0 mps 596 mmHg 31%
    06:00 +21°C° 0 mm 0 mps 597 mmHg 28%
    07:00 +23°C° 0 mm 0 mps 598 mmHg 24%
    08:00 +27°C° 0 mm 1 mps 599 mmHg 21%
    09:00 +29°C° 0 mm 1 mps 599 mmHg 19%
    10:00 +30°C° 0 mm 1 mps 600 mmHg 17%
    11:00 +32°C° 0 mm 1 mps 600 mmHg 15%
    12:00 +33°C° 0 mm 1 mps 600 mmHg 14%
    13:00 +35°C° 0 mm 2 mps 600 mmHg 12%
    14:00 +37°C° 0 mm 2 mps 600 mmHg 11%
    15:00 +37°C° 0 mm 2 mps 600 mmHg 10%
    16:00 +37°C° 0 mm 3 mps 600 mmHg 10%
    17:00 +38°C° 0 mm 3 mps 600 mmHg 9%
    18:00 +36°C° 0 mm 3 mps 599 mmHg 13%
    19:00 +34°C° 0 mm 4 mps 598 mmHg 16%
    20:00 +32°C° 0 mm 4 mps 598 mmHg 19%
    21:00 +29°C° 0 mm 3 mps 598 mmHg 22%
    22:00 +28°C° 0 mm 2 mps 597 mmHg 24%
    23:00 +27°C° 0 mm 1 mps 597 mmHg 27%

    24 July, Wednesday

    Time Temperature Precipitation Wind Pressure Humidity
    00:00 +26°C° 0 mm 1 mps 597 mmHg 28%
    01:00 +25°C° 0 mm 1 mps 596 mmHg 28%
    02:00 +24°C° 0 mm 1 mps 596 mmHg 29%
    03:00 +23°C° 0 mm 1 mps 596 mmHg 30%
    04:00 +23°C° 0 mm 1 mps 595 mmHg 30%
    05:00 +20°C° 0 mm 0 mps 595 mmHg 31%
    06:00 +24°C° 0 mm 1 mps 596 mmHg 27%
    07:00 +26°C° 0 mm 1 mps 597 mmHg 24%
    08:00 +28°C° 0 mm 1 mps 598 mmHg 20%
    09:00 +29°C° 0 mm 1 mps 599 mmHg 18%
    10:00 +31°C° 0 mm 2 mps 599 mmHg 15%
    11:00 +34°C° 0 mm 2 mps 600 mmHg 13%
    12:00 +35°C° 0 mm 2 mps 600 mmHg 11%
    13:00 +36°C° 0 mm 3 mps 600 mmHg 10%
    14:00 +37°C° 0 mm 3 mps 599 mmHg 8%
    15:00 +38°C° 0 mm 4 mps 599 mmHg 8%
    16:00 +38°C° 0 mm 4 mps 599 mmHg 7%
    17:00 +39°C° 0 mm 5 mps 599 mmHg 7%
    18:00 +35°C° 0 mm 5 mps 598 mmHg 10%
    19:00 +33°C° 0 mm 5 mps 597 mmHg 13%
    20:00 +29°C° 0 mm 5 mps 597 mmHg 16%
    21:00 +28°C° 0 mm 3 mps 597 mmHg 18%
    22:00 +27°C° 0 mm 2 mps 597 mmHg 20%
    23:00 +26°C° 0 mm 1 mps 596 mmHg 22%

    25 July, Thursday

    Time Temperature Precipitation Wind Pressure Humidity
    00:00 +25°C° 0 mm 1 mps 596 mmHg 23%
    01:00 +24°C° 0 mm 1 mps 596 mmHg 24%
    02:00 +23°C° 0 mm 1 mps 595 mmHg 25%
    03:00 +23°C° 0 mm 1 mps 595 mmHg 25%
    04:00 +22°C° 0 mm 1 mps 595 mmHg 26%
    05:00 +21°C° 0 mm 1 mps 595 mmHg 27%
    06:00 +23°C° 0 mm 1 mps 595 mmHg 24%
    07:00 +25°C° 0 mm 1 mps 596 mmHg 21%
    08:00 +27°C° 0 mm 1 mps 597 mmHg 19%
    09:00 +28°C° 0 mm 1 mps 598 mmHg 17%
    10:00 +30°C° 0 mm 1 mps 598 mmHg 15%
    11:00 +32°C° 0 mm 1 mps 599 mmHg 14%
    12:00 +34°C° 0 mm 2 mps 599 mmHg 12%
    13:00 +35°C° 0 mm 2 mps 599 mmHg 10%
    14:00 +36°C° 0 mm 2 mps 599 mmHg 8%
    15:00 +37°C° 0 mm 3 mps 599 mmHg 8%
    16:00 +37°C° 0 mm 3 mps 599 mmHg 8%
    17:00 +38°C° 0 mm 4 mps 599 mmHg 7%
    18:00 +35°C° 0 mm 4 mps 598 mmHg 13%
    19:00 +33°C° 0 mm 4 mps 598 mmHg 19%
    20:00 +29°C° 0 mm 4 mps 597 mmHg 25%
    21:00 +28°C° 0 mm 3 mps 597 mmHg 33%
    22:00 +27°C° 0 mm 3 mps 597 mmHg 42%
    23:00 +26°C° 0 mm 2 mps 597 mmHg 50%
    Show more